Location: Bacea
(45.9500°N, 22.6667°E)
Time: 10:02:43
(UTC+00:00)

Daily predictions for brighter satellites

Satellite Brightness Start Highest point End
(mag) Time Altitude Azimuth Time Altitude Azimuth Time Altitude Azimuth
Meteor 1-24 Rocket 4.0 16:01:01 10° NNW 16:06:43 84° W 16:12:36 10° S
Cosmos 2227 Rocket 2.2 16:01:58 10° NNW 16:07:40 81° ENE 16:13:20 10° SSE
Cosmos 1908 4.5 16:07:14 10° SE 16:10:12 21° E 16:13:11 10° NE
Timation 2 Rocket 4.2 16:04:19 10° NNW 16:11:14 68° ENE 16:17:57 10° SE
Cosmos 494 Rocket 4.3 16:07:31 10° NNW 16:12:35 47° ENE 16:17:34 10° SE
CZ-2C R/B 3.2 16:09:25 10° NNE 16:14:40 38° E 16:19:48 10° SSE
Cosmos 1356 3.5 16:11:22 10° N 16:14:42 52° ENE 16:18:00 10° SSE
USA 215 4.1 16:09:27 10° NE 16:15:35 44° NNW 16:21:43 10° W
Landsat 5 4.0 16:13:11 10° NNE 16:17:17 40° E 16:21:27 10° S
SKYMED 2 3.9 16:15:24 10° NNE 16:19:36 45° E 16:23:46 10° S
Aureole 2 4.1 16:18:18 10° NNW 16:21:15 82° WSW 16:24:22 10° SSE
Okean 2 Rocket 4.0 16:17:43 10° SSW 16:22:03 53° WNW 16:26:27 10° N
Cosmos 1726 3.1 16:20:08 10° SSW 16:23:39 49° WNW 16:27:11 10° N
Cosmos 1470 3.3 16:20:47 10° SSW 16:24:44 66° W 16:28:42 10° N
Okean O Rocket 1.6 16:20:36 10° SSE 16:24:51 59° ENE 16:29:08 10° N
Cosmos 2084 Rocket 3.5 16:21:41 10° SW 16:25:32 70° NW 16:29:27 10° NE
SL-19 R/B 4.3 16:21:54 10° NNE 16:27:47 81° ESE 16:33:22 10° SSW
BREEZE-M DEB (TANK) 4.0 16:19:57 10° W 16:29:13 58° N 16:32:05 13° ENE
Cosmos 1758 3.2 16:27:12 10° S 16:31:12 82° E 16:35:11 10° N
YAOGAN 1 3.3 16:28:25 10° SE 16:32:14 31° ENE 16:36:04 10° N
CZ-4 R/B 2.2 16:29:09 10° SE 16:32:36 29° ENE 16:36:07 10° N
Cosmos 1703 4.0 16:29:12 10° N 16:32:46 32° ENE 16:36:17 10° SE
Cosmos 2082 3.7 16:27:11 10° NNW 16:32:48 65° ENE 16:38:22 10° SE
Okean-O 3.9 16:30:23 10° ESE 16:33:38 20° ENE 16:36:54 10° NNE
Cosmos 1727 Rocket 4.0 16:29:34 10° N 16:35:50 80° E 16:42:02 10° S
Cosmos 1455 Rocket 3.9 16:32:38 10° SSE 16:36:26 29° E 16:40:16 10° NNE
Spot 2 4.2 16:35:26 10° SE 16:39:20 48° ENE 16:43:23 10° N
Cosmos 2150 Rocket 4.0 16:34:51 10° S 16:40:15 69° ESE 16:45:38 10° NNE
Meteor 1-21 Rocket 4.4 16:35:22 10° N 16:41:07 57° ENE 16:46:55 10° SSE
Cosmos 1953 2.6 16:38:06 10° SSE 16:41:56 43° E 16:45:48 10° NNE
H-2A R/B 3.0 16:39:34 10° NE 16:42:55 24° E 16:46:15 10° SSE
ATLAS 3B R/B 2.7 16:39:43 10° SW 16:46:15 84° NW 16:53:09 10° NE
H-2A R/B 2.6 16:45:34 10° S 16:50:51 66° WSW 16:56:17 10° NNW
CZ-4B R/B 4.0 16:53:12 10° S 16:58:44 59° W 17:04:21 10° NNW
Lacrosse 4 Rocket 3.6 16:57:53 10° NNE 16:59:24 12° NE 16:59:46 11° NE
Cosmos 1300 4.4 16:56:53 10° SE 17:03:17 10° NNE 16:57:58 16° SE
Okean 1 Rocket 4.0 16:57:34 10° SSW 17:01:46 50° WNW 17:06:01 10° N
ATLAS 5 CENTAUR R/B 1.9 16:58:55 10° S 17:02:29 36° ESE 17:04:05 26° ENE
Cosmos 405 Rocket 2.8 16:58:48 10° N 17:02:39 54° ENE 17:06:33 10° SSE
COSMO-SKYMED 1 3.3 17:03:28 10° N 17:07:44 56° WNW 17:11:59 10° SSW
Cosmos 967 Rocket 4.5 17:02:04 10° NW 17:08:34 87° NE 17:15:03 10° SE
Feng Yun 1-1 Rocket 4.2 17:04:18 10° SSE 17:09:47 88° WSW 17:15:28 10° NNW
Cosmos 2369 3.7 17:04:17 10° SSW 17:09:56 84° WNW 17:15:40 10° NNE
Cosmos 1605 Rocket 4.5 17:07:06 10° SSE 17:12:39 36° E 17:18:19 10° NNE
IRS-1C Rocket 4.0 17:10:30 10° SSE 17:15:40 63° ENE 17:20:53 10° N
HJ-1C 3.1 17:17:52 23° SSE 17:19:44 81° E 17:23:00 10° N
CZ-4C R/B 4.1 17:16:27 10° N 17:19:45 43° WNW 17:22:58 10° SW
H-2A R/B 2.9 17:16:29 10° S 17:20:52 66° WSW 17:25:09 10° NNW
Cosmos 1174 3.7 17:18:26 10° SW 17:21:41 57° NW 17:23:06 27° NNE
Cosmos 1892 Rocket 3.8 17:17:15 10° NNW 17:21:44 71° W 17:26:08 10° S
SL-08 RB Rocket 3.9 17:17:46 10° S 17:22:16 73° WSW 17:26:51 10° NNW
Cosmos 489 Rocket 4.4 17:17:38 10° NNW 17:23:52 72° ENE 17:29:10 15° SSE
Cosmos 1980 Rocket 2.2 17:18:36 10° SSW 17:24:15 84° WNW 17:29:59 10° NNE
Cosmos 389 Rocket 4.2 17:22:17 10° SW 17:25:22 32° WNW 17:28:30 10° N
Cosmos 2263 Rocket 2.1 17:22:16 10° NNW 17:27:52 71° ENE 17:31:01 26° SE
CSL-04 Debris 4.1 17:26:57 20° SE 17:30:39 62° ENE 17:36:00 10° N
Cosmos 1269 Rocket 3.9 17:25:51 10° NNW 17:31:10 72° ENE 17:34:01 28° SSE
ARGOS 4.3 17:30:09 10° S 17:35:16 45° W 17:40:28 10° NNW
X-37B 1.2 17:33:16 10° WSW 17:35:50 49° SW 17:35:50 49° SW
Cosmos 724 4.2 17:35:44 10° NNW 17:41:44 76° NE 17:43:53 41° SE
Cosmos 1697 Rocket 4.2 17:38:05 10° WSW 17:43:15 35° NW 17:48:26 10° NNE
Cosmos 1626 Rocket 3.3 17:46:47 10° N 17:51:03 80° ENE 17:51:03 80° ENE
CSL-04 Rocket 3.6 17:48:32 29° SSE 17:51:29 84° ENE 17:57:05 10° NNW
Cosmos 371 Rocket 3.8 17:46:44 10° S 17:50:05 42° SSE 17:50:05 42° SSE
Iridium 4 Rocket 3.9 17:47:59 10° NNW 17:52:14 53° W 17:56:48 10° SSW
MetOp-A 4.1 17:49:39 20° SSE 17:53:30 83° WSW 17:58:55 10° NNW
Cosmos 2278 4.0 17:48:06 10° SW 17:53:45 67° WNW 17:59:27 10° NNE
CZ-2C R/B 4.3 17:49:49 10° N 17:54:52 35° WNW 17:59:51 10° SW
USA 215 4.4 17:54:41 23° NE 17:57:42 34° N 18:03:26 10° WNW
Cosmos 1934 Rocket 4.2 17:51:54 10° SSW 17:58:00 69° W 18:04:05 10° N
Gbstr 26 Del rocket 4.4 17:51:11 10° WNW 17:58:37 87° SSW 18:01:28 45° SE
Cosmos 2344 4.3 17:52:32 10° NW 18:01:22 62° NE 18:05:54 40° ESE
Meteor 1-11 4.3 17:57:40 10° NNW 18:03:15 73° W 18:06:55 22° S
Cosmos 1844 Rocket 3.7 17:58:43 10° NNW 18:02:40 31° NNE 18:02:40 31° NNE
CZ-4 R/B 3.6 18:04:18 10° SSW 18:07:34 25° W 18:10:54 10° NW
Okean-O 3.5 18:07:42 26° SSW 18:09:48 47° W 18:14:05 10° NNW
SL-16 R/B 3.0 18:05:27 10° SSW 18:08:50 37° S 18:08:50 37° S
H-2A R/B 3.6 18:15:15 10° N 18:18:55 32° WNW 18:22:36 10° SW
Resurs 01 Rocket 4.2 18:26:20 11° N 18:26:20 11° N 18:26:33 10° N
ATLAS 3B R/B 4.4 18:32:23 10° W 18:37:58 27° NNW 18:43:19 12° NNE
Lacrosse 4 Rocket 3.7 18:34:39 10° NNW 18:36:03 20° NNW 18:36:03 20° NNW
Cosmos 839 Rocket 4.2 18:35:54 10° NW 18:43:39 79° WSW 18:43:48 78° SW
ATLAS 5 CENTAUR R/B 3.6 18:43:33 10° W 18:45:39 23° WNW 18:45:39 23° WNW
CENTAUR R/B 4.5 18:59:21 10° NW 19:05:13 24° NNE 19:06:09 23° NNE
Cosmos 2263 Rocket 4.4 19:07:29 10° WNW 19:11:09 18° W 19:12:46 16° WSW
USA 215 4.5 19:42:02 35° NNW 19:42:02 35° NNW 19:46:01 10° NW
